Location: Ku?niki
(51.4449°N, 17.8974°E)
Time: 01:38:10
(UTC+00:00)

Cosmos 1674 - Pass Details

Date: 18 September 2020
Orbit: 494 x 517 km, 82.5° (Epoch: 23 October)

Event Time Altitude Azimuth Distance (km) Brightness Sun altitude
Rises 19:02:00 0° 347° (NNW) 2,655 6.9 -19.7°
Reaches altitude 10° 19:04:10 10° 345° (NNW) 1,763 6.0 -20.0°
Maximum altitude 19:08:00 66° 263° (W) 570 3.0 -20.5°
Enters shadow 19:09:20 38° 194° (SSW) 810 3.5 -20.7°
